Location: T�chigga el Be�da
(16.4766°N, 9.3887°W)
Time: 09:26:40
(UTC+00:00)

IUS-7 SRM-1 - Pass Details

Date: 27 February 2020
Orbit: 294 x 29944 km, 26.5° (Epoch: 28 March)

Event Time Altitude Azimuth Distance (km) Brightness Sun altitude
Rises 19:23:52 0° 282° (WNW) 3,070 8.2 -10.3°
Reaches altitude 10° 19:27:09 10° 262° (W) 1,395 6.5 -11.1°
Maximum altitude 19:29:01 19° 212° (SSW) 814 4.2 -11.6°
Drops below altitude 10° 19:30:34 10° 159° (SSE) 1,138 4.3 -11.9°
Enters shadow 19:31:16 - 148° (SSE) 1,451 4.7 -12.1°
